Weather History for Danbury, CT

Change the Weather History Date:

Monday, December 23, 2013

  Actual Average Record
Temperature  
Mean Temperature 48 °F -  
Max Temperature 60 °F 38 °F 60 °F (2004)
Min Temperature 36 °F 21 °F -2 °F (1960)
Degree Days  
Heating Degree Days 16    
Moisture  
Dew Point 48 °F    
Average Humidity 87    
Maximum Humidity 94    
Minimum Humidity 73    
Precipitation  
Precipitation 0.77 in - - ()
Sea Level Pressure  
Sea Level Pressure 29.99 in    
Wind  
Wind Speed 4 mph (West)    
Max Wind Speed 16 mph    
Max Gust Speed 24 mph    
Visibility 6 miles    
Events Rain    
Averages and records for this station are not official NWS values.
T = Trace of Precipitation, MM = Missing Value Source: NWS Daily Summary

Daily Weather History Graph

Daily Weather History Graph

Search for Another Location

Airport:

Trip Planner

Search our weather history database for the weather conditions in past years. The results will help you decide how hot, cold, wet, or windy it might be!

Date:

Astronomy

Dec. 23, 2013 Rise Set
Actual Time 7:17 AM EST 4:28 PM EST
Civil Twilight 6:46 AM EST 5:00 PM EST
Nautical Twilight 6:11 AM EST 5:35 PM EST
Astronomical Twilight 5:37 AM EST 6:08 PM EST
Moon 10:40 PM EST (12/23) 10:38 AM EST (12/23)
Length of Visible Light 10h 13m
Length of Day
9h 11m
Waning Gibbous, 68% of the Moon is Illuminated
Dec 23
Waning Gibbous
Dec 25
Last Quarter
Jan 1
New
Jan 7
First Quarter
Jan 15
Full

Hourly Weather History & Observations

Time (EST) Temp. Windchill Dew Point Humidity Pressure Visibility Wind Dir Wind Speed Gust Speed Precip Events Conditions
12:53 AM 60.1 °F - 53.1 °F 78% 29.94 in 10.0 mi South 5.8 mph - N/A   Clear
1:53 AM 60.1 °F - 53.1 °F 78% 29.96 in 10.0 mi SSW 6.9 mph - N/A   Clear
2:53 AM 59.0 °F - 53.1 °F 81% 29.96 in 10.0 mi SW 3.5 mph - N/A   Mostly Cloudy
3:53 AM 55.0 °F - 51.1 °F 86% 29.98 in 10.0 mi Calm Calm - N/A   Partly Cloudy
4:53 AM 57.0 °F - 53.1 °F 87% 29.97 in 10.0 mi Calm Calm - N/A   Overcast
5:53 AM 54.0 °F - 50.0 °F 86% 29.97 in 10.0 mi Calm Calm - N/A   Overcast
6:53 AM 54.0 °F - 51.1 °F 90% 29.98 in 5.0 mi Calm Calm - 0.02 in Rain Rain
7:53 AM 55.0 °F - 52.0 °F 89% 29.99 in 4.0 mi Calm Calm - 0.06 in Rain Light Rain
8:06 AM 55.4 °F - 53.6 °F 94% 29.99 in 2.5 mi Calm Calm - 0.03 in Rain Rain
8:10 AM 53.6 °F - 51.8 °F 94% 29.99 in 1.8 mi Calm Calm - 0.04 in Rain Rain
8:16 AM 53.6 °F - 51.8 °F 94% 29.99 in 0.8 mi Calm Calm - 0.05 in Rain Rain
8:30 AM 53.6 °F - 51.8 °F 94% 29.98 in 1.0 mi East 3.5 mph - 0.07 in Rain Light Rain
8:38 AM 55.4 °F - 51.8 °F 88% 29.98 in 1.2 mi SE 5.8 mph - 0.08 in Rain Light Rain
8:53 AM 55.9 °F - 54.0 °F 93% 29.98 in 2.5 mi Calm Calm - 0.10 in Rain Light Rain
9:16 AM 57.2 °F - 53.6 °F 88% 29.98 in 3.0 mi Calm Calm - 0.05 in Rain Rain
9:29 AM 55.4 °F - 53.6 °F 94% 29.98 in 2.0 mi SE 3.5 mph - 0.09 in Rain Rain
9:43 AM 55.4 °F - 53.6 °F 94% 29.96 in 3.0 mi SE 5.8 mph - 0.11 in Rain Rain
9:53 AM 57.0 °F - 54.0 °F 89% 29.96 in 4.0 mi SSE 4.6 mph - 0.11 in Rain Light Rain
10:11 AM 57.2 °F - 53.6 °F 88% 29.98 in 2.5 mi South 5.8 mph - 0.02 in Rain Light Rain
10:22 AM 55.4 °F - 53.6 °F 94% 29.97 in 1.5 mi SSE 4.6 mph - 0.05 in Rain Rain
10:34 AM 55.4 °F - 53.6 °F 94% 29.96 in 2.0 mi South 6.9 mph - 0.06 in Rain Light Rain
10:37 AM 57.2 °F - 53.6 °F 88% 29.97 in 3.0 mi South 6.9 mph - 0.06 in Rain Light Rain
10:44 AM 57.2 °F - 53.6 °F 88% 29.95 in 7.0 mi South 5.8 mph - 0.06 in Rain Light Rain
10:53 AM 57.0 °F - 53.1 °F 87% 29.95 in 9.0 mi South 5.8 mph - 0.07 in Rain Light Rain
11:08 AM 57.2 °F - 53.6 °F 88% 29.97 in 6.0 mi South 3.5 mph - 0.01 in Rain Light Rain
11:19 AM 57.2 °F - 53.6 °F 88% 29.95 in 1.8 mi Variable 3.5 mph - 0.05 in Rain Heavy Rain
11:31 AM 55.4 °F - 53.6 °F 94% 29.91 in 3.0 mi SSE 8.1 mph - 0.08 in Rain Light Rain
11:53 AM 57.0 °F - 54.0 °F 89% 29.92 in 5.0 mi West 3.5 mph - 0.09 in Rain Light Rain
12:05 PM 57.2 °F - 53.6 °F 88% 29.95 in 1.8 mi WNW 5.8 mph - 0.04 in Rain Rain
12:16 PM 57.2 °F - 53.6 °F 88% 29.93 in 1.0 mi WNW 4.6 mph - 0.10 in Rain Heavy Rain
12:18 PM 57.2 °F - 53.6 °F 88% 29.94 in 1.0 mi WNW 4.6 mph - 0.11 in Rain Rain
12:23 PM 57.2 °F - 53.6 °F 88% 29.94 in 2.0 mi West 5.8 mph - 0.11 in Rain Light Rain
12:34 PM 57.2 °F - 53.6 °F 88% 29.93 in 1.8 mi WNW 4.6 mph - 0.13 in Rain Rain
12:41 PM 55.4 °F - 53.6 °F 94% 29.95 in 1.8 mi WNW 16.1 mph 24.2 mph 0.14 in Rain Rain
12:50 PM 51.8 °F - 48.2 °F 88% 29.94 in 3.0 mi NW 9.2 mph 21.9 mph 0.15 in Rain Light Rain
12:53 PM 51.1 °F - 46.9 °F 86% 29.94 in 3.0 mi Variable 5.8 mph 18.4 mph 0.15 in Rain Light Rain
1:23 PM 50.0 °F - 46.4 °F 87% 29.95 in 8.0 mi WNW 4.6 mph - 0.00 in Rain Light Rain
1:30 PM 50.0 °F - 44.6 °F 82% 29.95 in 8.0 mi Variable 3.5 mph - 0.01 in Rain Light Rain
1:53 PM 50.0 °F - 46.0 °F 86% 29.94 in 7.0 mi Calm Calm - 0.01 in Rain Light Rain
2:07 PM 50.0 °F - 46.4 °F 87% 29.95 in 3.0 mi Calm Calm - 0.02 in Rain Rain
2:42 PM 50.0 °F - 46.4 °F 87% 29.95 in 5.0 mi NE 3.5 mph - 0.06 in Rain Light Rain
2:53 PM 50.0 °F - 46.0 °F 86% 29.95 in 10.0 mi NE 5.8 mph - 0.06 in Rain Light Rain
3:53 PM 50.0 °F - 46.0 °F 86% 29.99 in 5.0 mi Calm Calm - 0.03 in Rain Light Rain
4:53 PM 48.9 °F - 45.0 °F 86% 30.02 in 10.0 mi NW 4.6 mph - 0.05 in Rain Light Rain
5:17 PM 48.2 °F - 44.6 °F 87% 30.04 in 10.0 mi West 4.6 mph - 0.00 in Rain Light Rain
5:27 PM 48.2 °F - 44.6 °F 87% 30.03 in 8.0 mi NW 5.8 mph - 0.00 in Rain Light Rain
5:53 PM 46.9 °F - 43.0 °F 86% 30.04 in 9.0 mi West 3.5 mph - 0.01 in Rain Light Rain
6:53 PM 44.1 °F 37.1 °F 39.9 °F 85% 30.06 in 10.0 mi NNE 15.0 mph 19.6 mph 0.00 in Rain Light Rain
7:53 PM 41.0 °F 35.8 °F 35.1 °F 79% 30.09 in 9.0 mi NNE 8.1 mph - 0.00 in Rain Light Rain
8:09 PM 39.2 °F 33.0 °F 35.6 °F 87% 30.10 in 10.0 mi North 9.2 mph 17.3 mph 0.01 in   Overcast
8:53 PM 39.9 °F - 34.0 °F 79% 30.13 in 10.0 mi Calm Calm - 0.01 in   Overcast
9:50 PM 39.2 °F 35.0 °F 33.8 °F 81% 30.12 in 10.0 mi North 5.8 mph - N/A   Overcast
9:53 PM 39.0 °F 34.8 °F 33.1 °F 79% 30.13 in 10.0 mi NNW 5.8 mph - N/A   Overcast
10:10 PM 39.2 °F 32.5 °F 32.0 °F 75% 30.12 in 10.0 mi North 10.4 mph - N/A   Overcast
10:53 PM 37.9 °F 28.9 °F 30.0 °F 73% 30.14 in 10.0 mi North 16.1 mph 21.9 mph N/A   Overcast
11:53 PM 36.0 °F 29.6 °F 28.0 °F 73% 30.14 in 10.0 mi North 8.1 mph - N/A   Overcast